Tracking 23610 objects as of 19-Sep-2021
HD Live streaming from Space Station
objects crossing your sky now

DMSP 5D-2 F13 DEB

Track DMSP 5D-2 F13 DEB now!
10-day predictions


NORAD ID: 40565
Int'l Code: 1995-015DY
Perigee: 844.3 km
Apogee: 1,114.1 km
Inclination: 98.7 °
Period: 104.5 minutes
Semi major axis: 7350 km
RCS: Unknown
Launch date: March 24, 1995
Source: United States (US)
Launch site: AIR FORCE WESTERN TEST RANGE (AFWTR)

Note: This is SATELLITE DEBRIS
aabbcc
Your satellite tracking list
Your tracking list is empty




NASA's NSSDC Master Catalog

Two Line Element Set (TLE):
1 40565U 95015DY  21261.02461977  .00000579  00000-0  54753-3 0  9996
2 40565  98.7387 109.5485 0183543 261.7258  96.3046 13.77710054324722
Source of the keplerian elements: AFSPC